GFSNE_prec_radar_237.txt.gz
Reflectivity
31 -12 19 13 12 17 6 -19 -20 -20 -20 -20 -20 -20 -20 -20 -20 -20 -20 -20 -20 -20 -20 -20 -20 -20 -20 -20 -20 -20 -20 -20 2 -17 5 -1 -20 1
17 -12 -20 -20 6 21 23 3 -2 -6 -20 -20 2 -20 2 -20 -20 -20 -20 -20 -20 -20 -20 -20 -20 -20 -20 -20 -20 -20 -20 3 -20 -16 3 7 9 4
14 -10 -20 4 -20 -20 5 -20 -20 -20 -20 -20 -20 -20 -20 -20 -20 -20 -20 -20 -20 -20 -20 -20 -20 -20 -20 -20 -20 -20 -20 -20 -1 -4 8 7 -15 -6
4 7 4 12 -8 -19 0 -20 -20 -20 -20 -20 -20 -20 -20 -20 25 -20 -20 -20 -20 -20 -20 -20 -20 -20 -20 -20 -20 -20 -20 -20 -20 12 19 3 23 16
-13 17 23 14 4 5 14 27 -17 -11 -16 -20 -20 -7 -20 -20 -20 -20 28 -20 -20 -20 -20 11 -20 -20 -18 -20 -20 -20 -20 6 11 17 19 21 20 29
20 18 41 20 15 26 23 28 23 18 18 8 -2 -2 -15 -20 -20 -20 -20 -20 -20 -20 15 -1 7 -10 -6 -14 -20 -17 10 17 17 16 19 26 20 27
14 8 24 30 30 38 31 40 40 19 45 32 32 28 1 2 -16 -20 -15 -20 -12 -1 -20 -19 -20 3 6 21 25 29 36 27 36 29 24 19 37 32
8 -20 4 23 18 26 26 33 32 31 29 5 18 40 27 25 39 30 12 -12 -20 -20 -20 1 -15 21 -17 18 20 8 9 11 26 35 30 27 34 37
2 3 -4 2 31 3 7 13 -0 0 3 -20 -5 28 35 16 17 17 26 31 16 30 -16 -6 -16 -19 9 4 6 0 2 6 20 22 31 36 36 35
8 16 -6 1 9 23 -1 1 -5 -3 20 -11 -1 9 18 26 16 25 19 4 31 18 4 11 2 16 -8 -20 -20 -9 9 19 27 32 32 30 34 34
-20 -20 -18 9 18 14 -2 -4 5 6 27 12 26 19 12 8 5 17 18 13 7 7 -9 3 -17 3 10 9 -20 -18 -19 15 25 28 24 25 32 35
-20 -20 -18 -4 -20 -3 4 -10 6 -7 11 17 4 15 26 18 22 18 -20 10 20 -9 -3 -18 -14 -20 -5 11 -20 -20 -20 15 14 20 26 32 30 32
-20 -20 -20 -14 -14 -10 1 -20 -14 -7 17 11 -0 17 19 28 18 21 15 -3 -2 17 8 4 -18 -14 -4 3 -19 -20 -20 -16 11 12 27 27 28 29
-20 -20 -8 11 -0 -20 -13 -7 -7 7 9 11 7 13 13 11 16 18 17 12 12 1 7 11 0 2 -9 -2 -20 -20 -18 -15 -7 -6 5 22 22 25
-20 8 12 10 10 -18 8 5 -2 5 15 15 16 16 12 11 20 -0 29 20 19 20 27 15 28 -2 15 11 7 -20 -18 -11 -0 4 21 11 12 18
-20 -20 -10 11 -12 -5 -0 -12 -5 13 15 15 13 8 -1 -20 -20 -10 -0 21 33 28 15 33 26 26 -15 -2 -20 -19 -9 10 -6 5 11 13 15 19
-14 -20 -20 -9 -11 -10 -12 -1 -20 -20 -1 -11 -20 -20 -20 -12 -5 -12 -18 -6 -3 -8 12 21 23 4 -3 -5 -17 -20 -14 -6 8 2 -4 8 15 14
-4 -20 -20 -11 -18 -18 -20 -19 -20 -7 -20 -20 -2 2 -10 -20 -19 -17 -17 -14 -11 19 28 18 18 19 32 5 9 -17 -9 -15 -12 -15 -13 2 8 20
-1 -15 -13 -20 -20 -20 -20 -20 -20 -20 -20 -20 -20 -20 -20 -20 8 -6 -9 -6 19 29 14 20 32 22 7 17 -11 -4 -20 -20 -20 -17 -16 -9 -20 -12
-4 -19 -10 -18 -20 -20 -20 -20 -20 -20 -20 -20 -20 -20 -6 -7 -15 -14 9 16 4 2 -1 20 15 23 28 15 -6 -1 -20 -19 -20 -3 -6 -10 -5 7
2 1 4 -6 -16 -20 -20 -20 -20 -1 3 -20 -20 -18 0 -4 -13 -1 12 19 -0 8 10 18 19 21 19 4 4 -2 -14 -20 -20 -20 -19 -13 -16 -11
-10 9 3 -1 -6 -20 -20 -20 -4 9 -10 -9 -20 -15 -4 -17 4 10 15 7 10 6 11 11 15 17 8 2 -20 -6 -3 -5 -20 -20 -20 -19 -18 -2
-3 2 -18 -20 -20 -20 -20 -20 13 13 -11 -12 -4 -2 2 -3 -1 4 9 4 5 -8 15 2 6 -3 -19 -20 -20 -20 -4 -15 -13 -5 -5 -20 -20 -20

GFSNE_prec_radar_243.txt.gz
Reflectivity
13 24 12 10 -18 -20 -20 19 11 -20 -20 -20 -20 -20 -20 -20 -20 -20 -20 -20 -20 -20 -20 -20 -20 -20 -20 -20 -20 -20 -20 -20 -20 -4 -20 -20 -7 -20
5 -13 -14 4 -20 -20 -14 -20 15 -18 -20 -20 -20 -20 -20 -20 -20 -20 -20 -20 -20 -20 -20 -20 -20 -20 -20 -20 -20 -20 -20 -20 -20 -20 -20 -20 -6 -16
9 -20 -20 5 6 -20 -20 -18 -20 -4 -20 3 -12 -20 -20 -20 -20 -20 -20 -20 -20 -20 -20 -20 -20 -20 -20 -20 -20 -20 -20 -20 -20 -20 -20 -20 -20 -20
-20 -18 -20 6 11 11 -19 -20 -20 15 -20 -20 -20 -14 -20 -20 -20 -20 -20 -20 -20 -20 -20 -20 -20 -20 -20 -20 -20 -20 -20 -20 -20 -20 -20 -20 -14 -9
25 -13 -20 26 -6 -18 4 -19 -20 -20 3 -19 -11 -20 -17 -20 -20 -9 -19 -20 -20 -20 -20 -20 -20 -20 -20 -20 -20 -20 -20 -20 -20 -20 -20 -20 -20 -20
6 29 24 19 23 22 -20 -16 2 -9 -5 4 -20 -20 -20 -14 5 -16 2 -15 -20 -20 -14 -20 -20 -20 -20 -20 -20 -20 -20 -20 -20 -20 -20 -20 -9 10
12 -7 0 24 21 20 -2 -4 -12 -1 6 5 -20 -20 -12 8 -20 -11 -11 -11 -20 -12 -20 1 -18 -14 -3 16 -13 -11 -9 1 -12 -5 -0 3 20 26
23 26 0 20 25 15 39 17 23 24 26 22 15 17 -19 11 23 12 -5 20 -17 17 -9 -3 -14 4 11 13 -8 5 1 -12 7 23 20 16 -2 15
27 37 38 41 42 32 35 26 45 32 32 12 5 -3 27 34 22 29 27 27 19 15 21 2 -15 18 15 -20 -8 1 -0 4 23 10 22 15 12 26
38 38 31 35 27 29 33 30 32 37 31 35 -8 8 12 15 29 32 26 26 21 18 15 8 6 25 16 10 29 18 5 4 -18 -15 7 21 21 3
12 17 20 30 23 34 29 27 29 19 12 16 28 9 1 11 31 17 10 25 23 11 8 -12 12 12 12 8 -20 2 -20 6 -3 -12 3 13 7 4
1 10 13 15 21 31 23 14 18 1 -4 8 12 16 22 19 32 18 4 2 12 11 3 8 14 19 25 16 11 -20 -20 -1 3 -20 -20 -10 -8 -5
-9 4 -0 25 16 21 18 14 18 25 29 16 21 19 8 11 20 26 9 8 13 12 -1 27 23 5 21 13 6 -8 -19 -13 -20 -20 -20 -20 -20 3
8 15 3 16 5 1 12 14 12 5 11 11 27 13 13 8 15 -15 -3 1 5 14 26 21 26 13 7 19 10 -14 -20 -20 -20 -20 -20 -20 -12 -12
21 20 29 24 -9 2 -1 -5 -3 9 15 16 16 15 13 12 11 -8 -18 9 25 17 24 8 9 25 7 25 14 -0 13 11 6 -20 -11 -20 -14 -7
24 10 17 25 24 -7 -20 -7 -15 11 9 9 17 16 11 10 10 -5 -17 -3 8 16 23 9 -4 -1 10 13 3 9 7 22 -1 7 3 1 12 11
-16 -6 5 11 -7 -18 -19 -13 8 7 -3 11 13 12 11 8 8 -19 -20 -20 -20 -12 -3 -3 11 -13 -0 -0 19 7 0 20 20 17 20 7 -7 15
-4 2 3 -2 -4 -14 -20 -20 -19 8 -17 -20 1 -6 -2 -6 -19 -20 -20 -20 -20 -20 -18 -18 15 3 -4 18 17 -11 7 11 12 5 15 23 -10 -19
1 1 0 2 -2 -7 -11 10 6 4 7 -20 -20 -20 2 8 12 -18 -20 -20 -20 -20 -13 -9 -20 3 11 1 -10 -14 -20 -18 -7 -10 -18 -20 -19 -20
-6 -2 1 2 -8 -4 -0 13 9 5 3 -19 -16 -20 -20 -20 -20 -20 -20 -20 -20 -20 3 21 11 -14 -2 25 8 -4 7 -11 -2 2 6 16 1 10
3 6 -4 -20 -20 -20 -15 -12 -3 -13 -12 -2 -20 -1 9 -20 -20 -20 -12 15 15 -11 -1 2 -2 23 -5 19 22 17 27 22 1 -17 3 -10 -20 -20
4 -20 -18 1 -4 -20 -20 -20 -20 -18 -17 0 -19 -20 2 -20 -20 -20 -20 -20 -18 -20 -17 9 7 8 21 18 8 11 23 6 7 -18 1 -19 -20 -18
9 8 7 8 4 -5 4 -19 -18 5 6 -8 5 -20 -20 -20 -20 -20 -9 -15 -10 -15 -18 -4 17 15 8 16 16 23 20 -14 -20 -20 -20 -20 -20 -20

GFSNE_prec_radar_249.txt.gz
Reflectivity
-20 -20 -20 -20 -20 -20 -20 -20 -20 -20 -20 -20 -20 -20 -20 -20 -20 -20 -20 -20 -20 -20 -20 -20 -20 -20 -20 -20 -20 -20 -20 -20 -4 10 -7 -16 -5 0
-2 -20 -20 -20 -20 -20 -20 -20 -20 -20 -20 -20 -20 -20 -20 -20 -20 -20 -20 -20 -20 -20 -20 -20 -20 -20 -20 -20 -20 -20 -20 -20 -20 -20 -20 -12 -20 -0
-19 -20 -20 -20 -20 -20 -20 -20 -20 -20 -20 -20 -20 -20 -20 -20 -20 -20 -20 -20 -20 -20 -20 -20 -20 -20 -20 -20 -20 -20 -20 -20 -20 -20 -20 -20 -20 -16
-20 -20 -20 -20 -20 -20 -20 -20 -20 -20 -20 -20 -20 -20 -20 -20 -20 -20 -20 -20 -20 -20 -20 -20 -20 -20 -20 -20 -20 -20 -20 -20 -20 -20 -20 -20 -20 -20
21 13 -20 6 4 -20 -20 -20 -20 -20 -20 -20 -20 -20 -20 -20 -20 -20 -20 -20 -20 -20 -20 -20 -20 -20 -20 -20 -20 -20 -20 -20 -20 -20 -20 -20 -20 -20
-20 -9 5 -20 -20 -20 -20 -20 -20 -20 -20 -20 -20 -20 -20 -20 -20 -20 -20 -20 -20 -20 -20 -20 -20 -20 -20 -20 -20 -20 -20 -20 -20 -20 -20 -20 -20 -20
10 1 -14 14 12 5 -14 -20 -20 -20 -20 -20 -20 -20 -20 -20 -20 -20 -20 -20 -20 -20 -20 -20 -20 -20 -20 -20 -20 -20 -20 -20 -20 -20 -20 -20 -20 -20
25 15 -4 7 -20 5 17 -6 10 -20 -20 -20 -20 -20 -20 -20 -20 -20 -20 -20 -20 -20 -14 -20 -20 -20 -20 -20 -20 -20 -20 -20 -20 -20 -20 -19 20 37
39 23 23 14 22 14 -19 10 13 14 -16 -20 -20 -20 -20 -20 -16 -20 -20 -20 -20 -18 -11 -13 -2 -20 -20 -20 -20 -20 -13 -1 18 -2 -20 11 -3 15
22 32 42 36 23 15 -12 7 -7 12 -1 -19 -20 -20 -20 -20 -15 -1 16 -6 3 5 23 2 2 14 15 22 12 8 17 6 -3 22 -14 -20 0 10
19 26 27 30 28 15 32 28 18 17 26 16 13 19 21 18 12 27 31 26 20 37 24 34 33 14 4 24 15 25 32 17 10 7 -3 8 3 -0
27 27 38 19 35 13 31 44 38 17 37 33 17 35 36 28 30 28 35 27 22 21 27 23 25 14 25 21 21 19 8 29 2 -5 13 -4 14 -11
20 18 25 34 41 23 32 38 10 25 25 25 25 31 35 21 30 34 31 24 21 19 22 30 24 -7 6 11 15 -14 24 7 -11 -20 -20 -8 12 -10
26 25 26 26 33 34 28 30 30 30 10 7 12 3 15 14 25 30 29 30 26 23 18 29 15 -5 8 25 12 -6 5 1 12 -8 -9 0 -1 9
27 27 35 33 34 41 31 37 31 10 3 16 8 21 13 29 30 29 31 33 24 26 24 6 21 6 11 12 19 21 28 2 15 4 -20 -13 -9 0
9 32 32 32 39 35 33 17 29 25 28 24 26 20 15 25 27 26 28 26 22 18 16 12 17 19 22 22 15 15 22 6 18 -5 0 -12 10 25
-20 -18 -2 21 29 37 35 30 25 36 34 18 28 16 13 23 27 24 28 12 28 10 23 9 14 20 16 15 10 -0 17 22 17 28 19 -5 -11 -10
-20 -20 -20 -6 17 23 26 20 17 25 31 33 23 11 -18 8 18 7 17 18 15 1 7 16 24 24 9 -5 15 22 14 4 1 5 18 29 3 -3
-20 -20 -20 -20 -18 -10 -5 -19 9 6 8 18 27 27 0 -9 15 28 16 18 -9 -20 -20 -20 13 -3 -19 -20 -20 -3 -8 -20 -19 -6 -6 -14 -15 -7
-18 -19 -5 -16 -20 -20 -19 -20 -20 -18 -17 -19 -9 0 6 17 20 23 17 17 23 6 -1 0 -7 -7 -17 -19 -19 -19 -11 -5 -20 -20 -20 -12 14 23
6 7 -12 6 6 -4 0 -3 1 -17 -15 -16 -14 -12 -12 -3 16 22 26 29 36 23 -9 -15 -16 17 11 15 20 -9 -13 4 8 -16 -14 -0 13 15
-5 10 15 2 -9 15 9 1 -18 0 3 -19 -20 -15 -6 -0 -7 2 20 28 15 10 -6 4 -2 14 4 -5 -15 -15 -8 -6 19 22 20 22 11 -3
-8 -5 -7 3 11 -4 -11 -18 10 4 -20 -20 -20 -20 -20 -20 -6 11 5 6 11 3 6 11 9 6 4 -7 4 9 11 -1 1 4 14 26 19 14

GFSNE_prec_radar_255.txt.gz
Reflectivity
12 13 -20 -20 -20 -20 -20 -20 -20 -20 -20 -20 -20 -20 -20 -20 -20 -20 -20 -20 -20 -20 -20 -20 -20 -20 -20 -20 -20 -20 -20 -20 -3 -3 7 12 16 15
20 13 -12 -20 -20 -20 -20 -20 -20 -20 -20 -20 -20 -20 -20 -20 -20 -20 -20 -20 -20 -20 -20 -20 -20 -20 -20 -20 -20 -20 -20 -20 -20 -18 -20 -20 6 3
22 -7 17 10 -20 -20 -20 -20 -20 -20 -20 -20 -20 -20 -20 -20 -20 -20 -20 -20 -20 -20 -20 -20 -20 -20 -20 -20 -20 -20 -20 -20 -20 -20 -20 -20 -15 9
25 21 21 22 -20 -20 -20 -20 -20 -20 -20 -20 -20 -20 -20 -20 -20 -20 -20 -20 -20 -20 -20 -20 -20 -20 -20 -20 -20 -20 -20 -20 -20 -20 -20 -20 -20 -20
26 20 25 19 21 -20 -20 -20 -20 -20 -20 -20 -20 -20 -20 -20 -20 -20 -20 -20 -20 -20 -20 -20 -20 -20 -20 -20 -20 -20 -20 -20 -20 -20 -20 -20 -20 -20
40 36 29 5 18 -7 -20 -20 -20 -20 -20 -20 -20 -20 -20 -20 -20 -20 -20 -20 -20 -20 -20 -20 -20 -20 -20 -20 -20 -20 -20 -20 -20 -20 -20 -20 -20 -20
34 45 29 33 16 -20 -20 2 -20 -20 -20 -20 -20 -20 -20 -20 -20 -20 -20 -20 -20 -20 -20 -20 -13 -20 -20 -20 -20 -20 -20 -20 -20 -20 -20 -20 -20 -20
29 42 23 28 26 23 -18 -2 17 14 -7 8 3 -20 -20 -20 -20 -20 -20 -20 -20 -20 -20 -20 -20 -20 -20 -20 -20 -20 -20 -20 -20 -20 -20 -20 -20 -20
36 35 36 38 34 23 23 21 9 4 18 -16 -20 -20 -20 -20 -20 -20 -20 -20 -20 -20 -20 -20 -20 -20 -20 -20 -20 -20 -20 -20 -20 -20 -20 -20 -20 -20
29 36 32 38 30 31 15 22 7 -4 -7 -3 -20 -20 -20 -20 -20 -20 -20 0 -20 -15 -15 9 -1 -20 -20 -20 -20 -20 -20 -20 -17 -19 -20 -20 -20 -20
23 29 29 30 31 28 27 15 9 -6 1 -3 -19 -16 -20 -12 4 -13 -20 -20 14 14 -3 -19 12 13 8 7 -20 -20 -20 -20 -20 -20 -20 -20 -20 -20
0 -10 19 19 20 30 24 5 17 7 14 13 -20 10 14 -19 5 -4 -20 -20 -13 12 13 -18 10 11 17 7 5 -20 -20 -20 -20 -20 -20 -20 -2 0
-20 -8 8 14 13 4 17 12 17 32 32 24 -12 -20 -20 -20 -18 -9 -20 -20 -20 -13 -3 -18 15 9 12 10 -20 -20 -20 -20 -20 -7 -2 -16 -20 4
-20 -20 4 22 9 8 13 16 24 23 12 14 1 -16 6 -20 -15 -9 -15 -2 3 -19 -20 -20 7 -6 -7 -6 -10 -20 -19 -5 26 20 3 16 21 16
-20 -20 -20 2 11 9 -9 13 22 22 27 27 12 11 21 13 17 10 29 34 24 36 23 23 14 3 14 -20 3 -14 -7 -20 -0 14 19 31 14 0
-20 -17 -20 -20 -20 2 -3 2 12 19 26 21 14 15 18 24 14 20 14 -5 -2 29 4 24 31 24 17 5 -19 -2 5 9 8 23 31 24 -15 -19
-20 -20 -20 -20 -20 -20 -20 -12 3 9 10 9 11 16 19 -1 11 27 26 21 14 29 21 8 12 24 20 8 13 24 11 13 24 19 28 22 5 11
-20 -20 -20 -20 -20 -20 -20 -20 -20 -17 -6 -11 -9 15 15 15 5 22 33 25 31 23 6 9 18 17 16 12 26 14 21 18 22 25 27 17 7 15
-20 -20 -20 -20 -20 -20 -20 -20 -20 -20 -20 -19 -9 -4 11 17 23 25 28 29 31 28 15 7 16 14 13 11 2 19 7 20 23 29 30 25 28 13
-20 -5 -16 -10 -9 -14 -20 -20 -20 -20 -20 -20 -19 -1 -3 5 17 27 33 35 36 35 28 20 19 15 16 3 12 1 22 14 17 25 28 25 21 25
-19 -19 -4 -11 -11 -8 -10 -15 -20 -20 -16 -20 -20 -19 -19 -6 9 15 37 35 29 28 31 30 22 28 21 22 18 22 24 26 19 16 20 15 20 18
-5 -16 -16 -8 -6 -8 -11 -8 -10 -7 -20 -20 -20 -20 -20 -20 -19 -6 17 23 22 26 19 29 29 24 27 29 19 18 21 25 32 29 11 13 -11 -5
-20 -0 -8 -17 0 -2 -1 -15 -16 -13 -8 -10 -20 -20 -20 -20 -20 -20 -11 -2 17 16 12 17 29 27 22 21 23 18 18 27 32 33 30 25 27 26

GFSNE_prec_radar_258.txt.gz
Reflectivity
25 21 -14 -19 -15 -20 -20 -20 -20 -20 -20 -20 -20 -20 -20 -20 -20 -20 -20 -20 -20 -20 -20 -20 -20 -20 -20 -20 -20 -20 -20 -20 -20 -16 -15 -20 -7 4
-13 23 18 -6 16 -20 -20 -20 -20 -20 -20 -18 -14 -20 -20 -20 -20 -20 -20 -20 -20 -20 -20 -20 -20 -20 -20 -20 -20 -20 -20 -20 -20 -20 -20 -20 -20 -15
29 23 25 18 -20 9 -20 -20 -20 -20 -20 -4 -7 -20 -20 -20 -20 -20 -20 -20 -20 -20 -20 -20 -20 -20 -20 -20 -20 -20 -20 -20 -20 -20 -20 -20 -20 -20
21 9 20 23 18 12 13 -20 -20 -20 -20 -20 -20 -20 -20 -20 -20 -20 -20 -20 -20 -20 -20 -20 -20 -20 -20 -20 -20 -20 -20 -20 -20 -20 -20 -20 -20 -20
38 25 2 8 20 11 15 15 -20 -20 -20 -20 -20 -20 -20 -20 -20 -20 -20 -20 -20 -20 -20 -20 -20 -20 -20 -20 -20 -20 -20 -20 -20 -20 -20 -20 -20 -20
27 38 18 14 27 18 15 20 15 -20 -20 -20 -20 -20 -20 -20 -20 -20 -20 -20 -20 -20 -20 -20 -20 -20 -20 -20 -20 -20 -20 -20 -20 -20 -20 -20 -20 -20
35 37 44 32 35 23 -9 19 23 -2 -20 -20 -20 -20 -20 -20 -20 -20 -20 -20 -20 -20 -20 -20 -20 -20 -20 -20 -20 -20 -20 -20 -20 -20 -20 -20 -20 -20
30 30 45 37 34 29 19 8 14 20 -20 -20 -20 -20 -20 -20 -20 -20 -20 -20 -20 -20 -20 -20 -20 -20 -20 -20 -20 -19 -20 -20 -20 -20 -20 -20 -20 -20
25 35 30 22 33 40 32 22 10 18 18 -17 -20 -20 -20 -20 -20 -20 -20 -20 -20 -20 -20 -20 -20 -20 -20 -20 -4 17 -19 -20 -20 -20 -20 -20 -20 -20
14 20 18 23 38 35 15 31 34 10 -10 -15 -20 -20 -20 -20 -20 -20 -20 -20 -20 -10 -20 -20 -1 -20 -20 -20 -5 -2 -20 -20 -20 -20 -20 -20 -20 -20
7 18 16 26 27 31 36 32 38 36 20 18 15 13 3 -19 -20 -20 -20 -20 14 13 -14 -20 13 16 10 9 -20 -20 -20 -20 -20 -20 -20 -20 -20 -20
4 9 21 19 26 27 25 31 35 29 5 10 10 11 9 3 6 -7 -20 -20 -13 11 13 -18 12 12 22 11 6 -20 -20 -20 -20 -20 -20 -20 -20 -20
-4 5 17 25 16 11 17 26 38 34 18 15 7 3 2 -20 -20 -16 -20 -20 -20 -16 -4 -18 15 12 14 16 5 -3 -20 -20 -20 -20 -20 -20 -20 -19
-17 -20 -10 17 11 -18 4 14 22 18 23 22 7 9 11 8 -20 -20 -20 9 -18 -20 -20 -9 11 -15 -15 10 8 -12 -20 -20 -20 -20 -20 -20 -20 -20
-20 -20 -20 -19 -19 -19 -16 1 12 10 10 15 18 30 8 1 19 -18 -9 -17 -17 -20 -4 -20 -18 -1 -16 -14 7 -0 -19 -7 -20 -20 -20 -20 -20 -20
-15 -17 -19 -20 -20 -20 -9 -10 -15 -4 -10 -19 17 11 -1 11 20 8 20 28 -0 -19 -9 -10 -13 -4 11 2 11 -17 -20 -20 -20 -20 -20 -20 -20 -20
-19 -20 -20 -20 -20 -20 -20 -20 -20 -16 4 -6 1 16 21 19 18 29 33 28 20 21 22 21 10 18 -9 -12 -0 -11 -20 -20 -20 -6 -17 -20 -18 -19
-20 -20 -20 -20 -20 -20 -20 -20 -20 -20 -6 -15 10 25 19 26 21 28 33 23 18 25 3 16 26 21 19 11 17 12 1 -17 11 5 22 11 -11 4
-20 -20 -5 -20 -19 -18 -20 -20 -20 -20 -20 -20 2 7 7 27 26 26 25 26 27 26 26 30 20 28 27 4 10 17 25 25 9 17 14 15 17 -1
-20 -14 -19 -12 -2 -1 -10 -13 -18 -20 -20 -20 -20 -20 -12 -4 -1 5 14 21 22 24 23 27 23 29 28 4 18 15 26 26 9 10 20 20 13 25
-19 -10 -10 -2 -2 -1 -12 -10 -12 -4 1 -20 -20 -20 -20 -20 -20 -18 -16 15 20 17 16 22 29 31 28 19 4 13 23 28 26 12 4 17 22 22
-19 0 -2 -3 -1 -2 -2 1 -3 -4 -19 -17 -20 -20 -20 -20 -20 -20 -20 -19 0 9 23 26 31 34 28 22 19 17 20 26 31 24 26 18 25 18
-20 -20 -20 -20 -3 -14 -20 -20 -5 -20 -3 -17 -15 -12 -11 -20 -20 -20 -20 -20 -20 -5 5 7 19 29 33 33 33 29 25 25 25 27 24 27 22 24

GFSNE_prec_radar_261.txt.gz
Reflectivity
24 28 8 -9 13 -20 -18 -20 -20 -20 -20 -20 -20 -20 -20 -20 -20 -20 -20 -20 -20 -20 -20 -20 -20 -20 -20 -20 -20 -20 -20 -20 -20 -20 -20 12 9 4
35 27 26 3 23 2 -20 -20 -20 -20 -20 -20 -2 -6 -20 -20 -20 -20 -20 -20 -20 -20 -20 -20 -20 -20 -20 -20 -20 -20 -20 -20 -20 -20 -20 -18 -10 1
29 27 25 29 21 14 -3 -13 -20 -20 -20 -20 -20 -14 -12 -20 -20 -20 -20 -20 -20 -20 -20 -20 -20 -20 -20 -20 -20 -20 -20 -20 -20 -20 -20 -20 -20 -20
27 9 34 28 6 36 -2 9 -20 -20 -20 -20 -20 -20 -20 -20 -20 -20 -20 -20 -20 -20 -20 -20 -20 -20 -20 -20 -20 -20 -20 -20 -20 -20 -20 -20 -20 -20
15 27 29 16 9 2 4 -5 -20 6 -20 -20 -20 -20 -20 -20 -20 -20 -20 -20 -20 -20 -20 -20 -20 -20 -20 -20 -20 -20 -20 -20 -20 -20 -20 -20 -20 -20
13 25 21 9 1 -12 18 -9 6 13 -12 -20 -20 -20 -20 -20 -20 -20 -20 -20 -20 -20 -20 -20 -20 -20 -20 -20 -20 -20 -20 -20 -20 -20 -20 -20 -20 -20
22 15 10 7 27 21 21 8 3 10 18 12 -20 -20 -20 -20 -20 -20 -20 -20 -20 -20 -20 -20 -20 -20 -20 -20 -20 -20 -20 -20 -20 -20 -20 -20 -20 -20
21 21 15 18 18 21 17 22 -12 2 -20 19 14 -20 -20 -20 -20 -20 -20 -20 -20 -20 -20 -20 -20 -20 -20 -20 -20 -20 -20 -20 -20 -20 -20 -20 -20 -20
29 27 25 16 4 16 18 31 7 -1 -17 -2 -5 -20 -20 -20 -20 -20 -20 -20 -20 -20 -20 -20 -20 -20 -20 -20 -20 -20 -20 -20 -20 -20 -20 -20 -20 -20
35 29 21 6 -3 9 9 26 19 4 -5 -16 -17 -2 12 -20 -20 -20 -20 -20 -20 -20 -20 -20 -20 -20 -20 -20 -20 -20 -20 -20 -20 -20 -20 -20 -20 -20
33 26 11 9 -4 -0 30 29 12 26 24 21 14 6 10 -13 -20 -20 -20 -20 10 9 -20 -20 16 23 16 -5 -20 -16 -20 -20 -20 -20 -20 -20 -20 -20
33 24 23 12 12 -0 6 -4 31 23 19 19 14 -6 -1 2 7 -20 -20 -20 -14 21 14 -18 20 18 27 20 -16 -20 -20 -20 -20 -20 -20 -20 -20 -20
20 20 15 18 7 16 21 -10 10 14 14 32 26 18 17 15 -19 -19 -20 -20 -20 -15 -4 -18 20 20 23 22 14 -20 -20 -20 -20 -20 -20 -20 -20 -20
18 16 10 16 15 17 12 -2 15 22 24 29 32 35 11 32 30 -15 -20 -20 -9 -7 -20 -20 5 -20 -19 18 -20 -2 -13 -20 -20 -20 -20 -20 -20 -13
16 13 17 11 16 22 15 14 9 11 20 17 22 29 29 31 37 30 7 -16 -6 4 10 9 -19 -20 -20 -20 -20 -5 -2 -1 -20 -20 -20 -20 -20 -20
5 2 -2 -6 2 3 11 4 1 19 25 25 27 35 33 32 32 24 27 9 16 9 -0 -11 -17 -20 14 -18 -20 9 -20 -7 -1 -20 -20 -16 -20 -20
-11 -20 -2 -2 -2 -19 -16 -20 -19 -12 6 12 11 24 23 25 29 25 18 12 18 26 19 6 7 -3 -15 -20 8 -20 -20 -9 -20 -6 -11 -14 -20 -20
8 5 2 2 2 3 3 2 -1 -12 -17 -2 -7 8 26 32 28 26 25 21 23 18 17 9 11 13 17 20 26 8 -5 -20 -20 -20 -20 -20 -20 -18
6 7 7 6 4 3 3 5 2 1 -12 -20 -20 -20 -20 -5 23 19 16 20 25 22 20 11 18 23 14 19 13 19 25 -6 -7 -6 -3 24 6 -4
0 3 5 6 2 2 3 5 3 2 1 -0 -15 -20 -16 -20 -7 19 30 28 21 17 19 22 23 15 20 17 21 23 20 8 13 24 23 13 16 20
-2 -3 1 1 3 2 -1 -2 1 3 3 -1 0 -2 -1 -1 -20 -13 6 16 25 24 22 22 26 24 21 21 23 27 19 23 24 20 24 25 27 22
2 2 0 1 2 1 1 4 3 3 2 1 -0 -2 -10 2 2 1 -7 -5 -2 -4 9 24 28 28 31 33 28 30 22 21 26 22 20 24 27 28
7 2 5 1 2 2 -4 -0 -3 3 1 3 1 0 -0 -1 -1 -4 -0 -1 -7 -20 -20 -18 7 11 18 26 26 25 9 7 18 19 14 24 28 29